Location: Warszawa
(52.2500°N, 21.0000°E)
Time: 14:37:46
(UTC+02:00)

ITUPSAT 1 - Pass Details

Date: 22 April 2024
Orbit: 694 x 707 km, 98.5° (Epoch: 20 May)

Event Time Altitude Azimuth Distance (km) Brightness Sun altitude
Rises 21:24:51 0° 28° (NNE) 3,090 ? -13.4°
Reaches altitude 10° 21:27:57 10° 49° (NE) 2,165 ? -13.8°
Maximum altitude 21:30:54 16° 88° (E) 1,769 ? -14.1°
Enters shadow 21:31:33 16° 98° (E) 1,788 ? -14.2°
